Weather History for K9V9 - October, 2011

Change the Weather History Date:

Tuesday, October 11, 2011

  Actual Average Record
Temperature  
Mean Temperature 62 °F -  
Max Temperature 75 °F 62 °F 84 °F (1997)
Min Temperature 48 °F 37 °F 28 °F (2006)
Degree Days  
Heating Degree Days 4    
Growing Degree Days 12 (Base 50)    
Moisture  
Dew Point 50 °F    
Average Humidity 70    
Maximum Humidity 90    
Minimum Humidity 34    
Precipitation  
Precipitation 0.00 in - - ()
Sea Level Pressure  
Sea Level Pressure 29.71 in    
Wind  
Wind Speed 9 mph (SSW)    
Max Wind Speed 20 mph    
Max Gust Speed 23 mph    
Averages and records for this station are not official NWS values.
T = Trace of Precipitation, MM = Missing Value Source: NWS Daily Summary

Daily Weather History Graph

Daily Weather History Graph

Search for Another Location

Airport or City:

Trip Planner

Search our weather history database for the weather conditions in past years. The results will help you decide how hot, cold, wet, or windy it might be!

Date:

Astronomy

Oct. 11, 2011 Rise Set
Actual Time 7:46 AM CDT 7:00 PM CDT
Civil Twilight 7:17 AM CDT 7:29 PM CDT
Nautical Twilight 6:44 AM CDT 8:02 PM CDT
Astronomical Twilight 6:10 AM CDT 8:36 PM CDT
Moon 6:31 PM CDT (10/11) 7:27 AM CDT (10/11)
Length of Visible Light 12h 12m
Length of Day
11h 14m
Full, 100% of the Moon is Illuminated
Oct 11
Full
Oct 11
Full
Oct 19
Last Quarter
Oct 26
New
Nov 2
First Quarter

Hourly Weather History & Observations

Time (CDT) Temp. Dew Point Humidity Pressure Visibility Wind Dir Wind Speed Gust Speed Precip Events Conditions
12:52 AM 51.1 °F 44.1 °F 77% 29.79 in - WSW 6.9 mph - N/A   Unknown
1:52 AM 55.0 °F 46.0 °F 72% 29.78 in - WSW 11.5 mph - N/A   Unknown
2:52 AM 55.9 °F 46.9 °F 72% 29.78 in - WSW 11.5 mph - N/A   Unknown
3:52 AM 54.0 °F 46.9 °F 77% 29.76 in - WSW 10.4 mph - N/A   Unknown
4:52 AM 53.1 °F 46.9 °F 80% 29.76 in - Calm Calm - N/A   Unknown
5:52 AM 51.1 °F 46.9 °F 86% 29.76 in - South 3.5 mph - N/A   Unknown
6:52 AM 50.0 °F 46.0 °F 86% 29.76 in - SSW 6.9 mph - N/A   Unknown
7:52 AM 48.9 °F 46.0 °F 90% 29.77 in - SSE 5.8 mph - N/A   Unknown
8:52 AM 51.1 °F 48.0 °F 89% 29.75 in - SSE 5.8 mph - N/A   Unknown
9:52 AM 59.0 °F 48.9 °F 69% 29.74 in - South 6.9 mph - N/A   Unknown
10:52 AM 64.9 °F 50.0 °F 58% 29.73 in - SSW 9.2 mph - N/A   Unknown
11:52 AM 69.1 °F 51.1 °F 53% 29.72 in - SW 11.5 mph - N/A   Unknown
12:52 PM 73.0 °F 48.0 °F 41% 29.70 in - SW 19.6 mph 23.0 mph N/A   Unknown
1:52 PM 75.0 °F 46.9 °F 37% 29.68 in - SW 16.1 mph - N/A   Unknown
2:52 PM 75.0 °F 45.0 °F 34% 29.65 in - SSW 16.1 mph 20.7 mph N/A   Unknown
3:52 PM 73.0 °F 48.0 °F 41% 29.65 in - SSW 11.5 mph - N/A   Unknown
4:52 PM 72.0 °F 54.0 °F 53% 29.65 in - South 16.1 mph - N/A   Unknown
5:52 PM 66.9 °F 55.9 °F 68% 29.66 in - South 19.6 mph 23.0 mph N/A   Unknown
6:52 PM 64.0 °F 55.9 °F 75% 29.67 in - South 12.7 mph - N/A   Unknown
7:52 PM 62.1 °F 55.9 °F 80% 29.69 in - South 8.1 mph - N/A   Unknown
8:52 PM 61.0 °F 55.0 °F 81% 29.68 in - South 6.9 mph - N/A   Unknown
9:52 PM 60.1 °F 55.0 °F 83% 29.67 in - Calm Calm - N/A   Unknown
10:52 PM 57.9 °F 55.0 °F 90% 29.66 in - South 3.5 mph - N/A   Unknown
11:52 PM 57.9 °F 54.0 °F 87% 29.66 in - SSE 5.8 mph - N/A   Unknown